[[{"header":{"parameterUnit":"m.s-1","parameterCategory":1,"la1":30.2991,"la2":30.254,"lo1":-89.0895,"lo2":-89.0444,"dy":0.0017,"dx":0.0017,"nx":28,"ny":28,"refTime":"2026-02-24T09:00:00:Z","depth":0,"parameterNumber":2,"parameterNumberName":"U-component_of_WINDS"},"data":[0,0,0,0,0,0,0,0,0,0,0,0,0,0,0,0,0,0,0,0,0,0,0,0,0,0,0,0,0,0,0,0,0,0,0,0,0,0,0,0,0,0,0,0,0,0,0,0,0,0,0,0,0,0,0,0,0,0,0.8205,0.8205,0,0.8213,0.8213,0.8213,0.8199,0.8198,0.8198,0.8197,0.8207,0.8207,0.8208,0,0,0,0,0,0,0,0,0,0,0,0,0,0.8177,0.8178,0.8205,0.8205,0.8205,0.8213,0.8213,0.8213,0.8199,0.8198,0.8198,0.8197,0.8206,0.8207,0.8208,0,0,0,0,0,0,0,0,0,0,0,0,0,0.8188,0.8178,0.8205,0.8199,0.8198,0.8213,0.8213,0.8214,0.8199,0.8198,0.8198,0.8197,0.8206,0.8207,0.8208,0.823,0,0,0.8212,0.8212,0,0,0,0,0,0,0,0,0.8187,0.8189,0.82,0.8199,0.8199,0.8204,0.8207,0.8219,0.8199,0.8199,0.8197,0.8196,0.8207,0.8208,0.8211,0.823,0.8231,0.8212,0.8212,0.8213,0.8213,0,0,0,0,0,0,0,0.8187,0.8188,0.8208,0.82,0.8199,0.8196,0.8197,0.8209,0.8207,0.8199,0.8198,0.8199,0.8206,0.821,0.8211,0.8231,0.8212,0.8213,0.8213,0.8214,0.8269,0.8269,0,0,0,0,0,0,0.8186,0.8188,0.8208,0.8209,0.8191,0.8197,0.8198,0.8203,0.8207,0.8206,0.8199,0.8198,0.8208,0.821,0.8211,0.8237,0.8213,0.8214,0.8214,0.8268,0.8269,0.827,0,0,0,0,0,0,0.8186,0.8188,0.8208,0.8198,0.82,0.8198,0.8205,0.8204,0.8207,0.8207,0.8207,0.8204,0.8208,0.821,0.8225,0.8237,0.8214,0.8215,0.8267,0.8268,0.8269,0.8288,0,0,0,0,0,0,0.8185,0.8188,0.8196,0.8198,0.8201,0.8221,0.8205,0.8204,0.8209,0.8207,0.8211,0.8211,0.8207,0.8224,0.8226,0.8238,0.8216,0.8266,0.8267,0.8269,0.8286,0.8289,0.8292,0,0,0,0,0,0.8184,0.8201,0.8197,0.8199,0.821,0.8222,0.8223,0.8219,0.821,0.8218,0.8218,0.8211,0.8235,0.8225,0.8228,0.824,0.8265,0.8267,0.8269,0.8285,0.8289,0.8292,0,0,0,0,0,0,0.8201,0.8201,0.8196,0.8214,0.8218,0.822,0.8229,0.8223,0.823,0.8228,0.8223,0.8224,0.8241,0.8242,0.8231,0.8261,0.8249,0.8251,0.826,0.8264,0.8267,0.8266,0.8217,0,0,0,0,0,0.8206,0.8215,0.8216,0.8231,0.8234,0.8231,0.8236,0.8232,0.8236,0.8238,0.8239,0.8243,0.8252,0.8258,0.8266,0.8286,0.8287,0.8296,0.8299,0.8302,0.8304,0.8315,0.8319,0.8276,0.8276,0.8276,0,0,0.8218,0.822,0.8226,0.8235,0.8237,0.8247,0.8233,0.8244,0.8251,0.824,0.8254,0.8256,0.826,0.8278,0.8286,0.828,0.8316,0.8304,0.8306,0.8307,0.8317,0.8321,0.8325,0.8277,0.8277,0.8277,0,0,0.8245,0.8247,0.826,0.8263,0.8267,0.8266,0.8269,0.8271,0.8271,0.8286,0.8278,0.8287,0.8302,0.8305,0.8309,0.8338,0.8331,0.8341,0.8357,0.8368,0.8371,0.8374,0.8384,0.8388,0.8343,0.8343,0.8343,0,0.8259,0.8273,0.8268,0.8279,0.8284,0.8274,0.8288,0.8291,0.8298,0.8301,0.8294,0.8313,0.8315,0.8334,0.8341,0.8344,0.8348,0.834,0.8371,0.8374,0.8377,0.8386,0.839,0.8344,0.8344,0.8344,0.8344,0,0.829,0.83,0.8311,0.8317,0.8323,0.8336,0.8333,0.8339,0.8335,0.8334,0.835,0.8352,0.8361,0.8365,0.8361,0.8383,0.8379,0.8372,0.8359,0.8382,0.8391,0.8395,0.8345,0.8345,0.8345,0.8344,0,0,0.8327,0.8331,0.8335,0.8337,0.8342,0.8349,0.8362,0.837,0.8376,0.8381,0.8391,0.8404,0.8397,0.8402,0.8398,0.8408,0.843,0.8399,0.8399,0.8405,0.8455,0.8461,0.8465,0.8426,0.8427,0.8427,0.8455,0,0.8353,0.8374,0.837,0.8391,0.84,0.8391,0.8402,0.8406,0.8406,0.8414,0.8414,0.8424,0.8414,0.8416,0.8425,0.8426,0.844,0.8424,0.8436,0.8436,0.8435,0.847,0.8476,0.8502,0.8458,0.8459,0.8459,0,0.8386,0.8393,0.8414,0.8417,0.8421,0.8431,0.8438,0.8446,0.845,0.845,0.8455,0.845,0.8462,0.845,0.8467,0.8456,0.8461,0.8462,0.8463,0.8464,0.8449,0.8472,0.851,0.8514,0.8465,0.8464,0.8464,0,0.8411,0.8425,0.8439,0.8442,0.8446,0.8453,0.8455,0.8459,0.8464,0.8471,0.8474,0.8482,0.8486,0.8493,0.8491,0.8481,0.8509,0.8496,0.8509,0.8509,0.8515,0.8514,0.8554,0.8518,0.8518,0.8518,0.8518,0,0.844,0.8454,0.845,0.846,0.8475,0.847,0.8485,0.8486,0.849,0.8499,0.8492,0.8501,0.8497,0.8506,0.8505,0.852,0.8522,0.8522,0.8521,0.8522,0.8522,0.8525,0.8523,0.8519,0.8519,0.8519,0.8519,0,0.847,0.8468,0.8484,0.8486,0.8487,0.8498,0.85,0.8509,0.8509,0.8521,0.8523,0.8522,0.8533,0.8531,0.8542,0.8541,0.856,0.8557,0.8558,0.8557,0.8571,0.8569,0.8613,0.8619,0.858,0.858,0.858,0,0.8489,0.8499,0.8503,0.8508,0.8511,0.852,0.8525,0.8522,0.8528,0.8534,0.8542,0.8551,0.8559,0.8575,0.8576,0.8585,0.8582,0.8597,0.8583,0.8584,0.8582,0.8582,0.8583,0.86,0.86,0.8601,0.8601,0,0.8522,0.8521,0.8529,0.8537,0.8543,0.8549,0.8554,0.856,0.8557,0.8564,0.8574,0.858,0.8591,0.8601,0.8609,0.8611,0.8606,0.8605,0.8609,0.861,0.861,0.861,0.8565,0.8604,0.8604,0.8604,0.8603,0.8603,0.8547,0.8555,0.856,0.8569,0.8572,0.8578,0.8586,0.8587,0.8595,0.8604,0.8602,0.8613,0.8618,0.8629,0.8632,0.8641,0.8636,0.8641,0.8642,0.8643,0.8645,0.8609,0.8643,0.8643,0.8643,0.8642,0.8642,0,0.858,0.8582,0.8591,0.8598,0.8606,0.86,0.8606,0.8612,0.8622,0.8627,0.8635,0.8647,0.8656,0.8658,0.8667,0.8674,0.8672,0.8677,0.8676,0.8677,0.8649,0.8645,0.8678,0.8678,0.8678,0.8678,0.8678,0.8678,0.8598,0.8612,0.8612,0.8628,0.8631,0.8642,0.8646,0.8651,0.8654,0.8668,0.8676,0.8677,0.8681,0.869,0.8699,0.8699,0.8703,0.8708,0.8708,0.8682,0.8678,0.8675,0.8671,0.8709,0.8709,0.8734,0.8734,0.8735]},{"header":{"parameterUnit":"m.s-1","parameterCategory":1,"la1":30.2991,"la2":30.254,"lo1":-89.0895,"lo2":-89.0444,"dy":0.0017,"dx":0.0017,"nx":28,"ny":28,"refTime":"2026-02-24T09:00:00:Z","depth":0,"parameterNumber":3,"parameterNumberName":"V-component_of_WINDS"},"data":[0,0,0,0,0,0,0,0,0,0,0,0,0,0,0,0,0,0,0,0,0,0,0,0,0,0,0,0,0,0,0,0,0,0,0,0,0,0,0,0,0,0,0,0,0,0,0,0,0,0,0,0,0,0,0,0,0,0,4.1598,4.1599,0,4.171,4.1711,4.1713,4.1708,4.1707,4.1705,4.1704,4.1823,4.1827,4.1832,0,0,0,0,0,0,0,0,0,0,0,0,0,4.1384,4.1388,4.1598,4.1599,4.1601,4.171,4.1712,4.1713,4.1709,4.1707,4.1705,4.1703,4.1821,4.1827,4.1832,0,0,0,0,0,0,0,0,0,0,0,0,0,4.1485,4.1389,4.1597,4.1611,4.1614,4.171,4.1712,4.1714,4.1709,4.1707,4.1704,4.1702,4.1819,4.1826,4.1833,4.1924,0,0,4.1854,4.1857,0,0,0,0,0,0,0,0,4.1479,4.1493,4.1608,4.1611,4.1613,4.1693,4.168,4.1784,4.171,4.1673,4.1704,4.1701,4.1782,4.1792,4.1818,4.1929,4.1934,4.1855,4.1859,4.1862,4.1864,0,0,0,0,0,0,0,4.1472,4.1488,4.1642,4.161,4.1613,4.1614,4.1625,4.17,4.1739,4.1676,4.1676,4.1689,4.1783,4.1811,4.1821,4.1936,4.1855,4.1861,4.1865,4.1868,4.2131,4.2133,0,0,0,0,0,0,4.1461,4.1482,4.1639,4.1646,4.1539,4.1619,4.1632,4.167,4.1739,4.1747,4.1691,4.1688,4.1801,4.1813,4.1825,4.1938,4.1862,4.1869,4.1873,4.2128,4.2131,4.2134,0,0,0,0,0,0,4.1457,4.1475,4.1634,4.1564,4.1584,4.1626,4.1668,4.1673,4.1702,4.175,4.1757,4.1713,4.1799,4.1815,4.19,4.1942,4.1872,4.1878,4.2125,4.2129,4.2133,4.2163,0,0,0,0,0,0,4.1451,4.1474,4.1507,4.1565,4.1588,4.1706,4.167,4.1677,4.1713,4.1711,4.1772,4.178,4.1799,4.1889,4.1907,4.195,4.1884,4.2121,4.2127,4.2131,4.2158,4.2167,4.2175,0,0,0,0,0,4.1443,4.1512,4.1509,4.1528,4.1631,4.1708,4.1721,4.174,4.1717,4.1752,4.1783,4.1778,4.1934,4.1898,4.1917,4.1964,4.2118,4.2125,4.2131,4.2154,4.2166,4.2175,0,0,0,0,0,0,4.1459,4.1519,4.1517,4.1606,4.1652,4.1707,4.1752,4.1751,4.1805,4.1801,4.1823,4.1837,4.1923,4.1951,4.191,4.2057,4.2024,4.2034,4.2035,4.2046,4.2054,4.2046,4.1889,0,0,0,0,0,4.1473,4.1529,4.1579,4.1653,4.1676,4.171,4.1744,4.1755,4.1804,4.1823,4.1861,4.191,4.197,4.2009,4.2067,4.2162,4.2177,4.2204,4.2212,4.2219,4.2228,4.2284,4.2297,4.2155,4.2155,4.2155,0,0,4.1502,4.1542,4.1576,4.1657,4.1694,4.1754,4.1726,4.179,4.1835,4.1834,4.1916,4.1945,4.2001,4.2092,4.2134,4.2119,4.2271,4.2227,4.2232,4.2238,4.2291,4.2305,4.2317,4.2159,4.2158,4.2158,0,0,4.1586,4.1621,4.1687,4.1725,4.1781,4.1803,4.1819,4.1875,4.1894,4.1976,4.1977,4.2032,4.2134,4.2175,4.2209,4.2311,4.2309,4.2329,4.2375,4.2428,4.2439,4.2449,4.2488,4.2501,4.2338,4.2338,4.2338,0,4.1616,4.1705,4.1722,4.1787,4.1823,4.1823,4.1892,4.1928,4.2,4.2027,4.2008,4.2138,4.2176,4.2278,4.2302,4.2329,4.235,4.2323,4.2436,4.2446,4.2456,4.2493,4.2507,4.234,4.234,4.234,4.234,0,4.174,4.1802,4.1849,4.1918,4.196,4.2026,4.2055,4.2096,4.2103,4.2128,4.2214,4.2259,4.2327,4.2352,4.2359,4.2455,4.2444,4.2431,4.2398,4.2471,4.2507,4.2521,4.2343,4.2343,4.2342,4.2341,0,0,4.1837,4.1916,4.1933,4.1966,4.2028,4.2077,4.2144,4.221,4.2245,4.2296,4.2354,4.2442,4.243,4.2469,4.2482,4.2528,4.2609,4.2509,4.2511,4.2528,4.272,4.2732,4.2748,4.2608,4.261,4.2612,4.2716,0,4.193,4.2048,4.2066,4.2171,4.223,4.2231,4.2291,4.2336,4.2362,4.2417,4.2445,4.2508,4.2486,4.251,4.2556,4.2589,4.2648,4.2582,4.2665,4.2668,4.2653,4.2766,4.2778,4.2873,4.273,4.2732,4.2734,0,4.2053,4.2106,4.2217,4.2273,4.2298,4.2351,4.2414,4.2465,4.2518,4.2534,4.2578,4.2585,4.2658,4.2621,4.2723,4.2677,4.2712,4.2734,4.2738,4.2748,4.2707,4.2781,4.2904,4.2919,4.2756,4.2754,4.2752,0,4.2116,4.2215,4.2295,4.2322,4.2389,4.2427,4.2456,4.2507,4.2546,4.2601,4.2627,4.2691,4.2726,4.2776,4.2802,4.2772,4.2902,4.2867,4.292,4.2919,4.2948,4.2946,4.3081,4.2967,4.2967,4.2967,4.2967,0,4.2218,4.2286,4.2324,4.2373,4.2451,4.2472,4.2548,4.2577,4.2622,4.2679,4.2684,4.2738,4.2767,4.2825,4.2845,4.2928,4.2943,4.296,4.2965,4.296,4.2959,4.2985,4.298,4.2971,4.297,4.2969,4.2968,0,4.2302,4.233,4.2417,4.2473,4.2489,4.2544,4.2593,4.2642,4.2667,4.2739,4.2757,4.2798,4.2867,4.2897,4.2982,4.2995,4.3091,4.309,4.3073,4.3075,4.3126,4.3122,4.3284,4.3308,4.3177,4.3178,4.3179,0,4.2366,4.2419,4.2481,4.2519,4.2549,4.261,4.265,4.2673,4.2715,4.278,4.2822,4.2891,4.2947,4.3058,4.3096,4.3162,4.3164,4.3217,4.3174,4.3169,4.3168,4.3165,4.3172,4.3225,4.3226,4.3227,4.3228,0,4.2478,4.249,4.2546,4.2609,4.2656,4.2707,4.2756,4.2787,4.2818,4.2865,4.2936,4.2979,4.3067,4.3136,4.3204,4.3237,4.324,4.3241,4.3257,4.3254,4.3243,4.3252,4.3096,4.3238,4.3237,4.3236,4.3235,4.3235,4.2556,4.2603,4.2655,4.2719,4.2758,4.2805,4.2854,4.2886,4.2944,4.3016,4.3027,4.3103,4.3157,4.3249,4.3284,4.3345,4.3333,4.3355,4.3361,4.3367,4.3372,4.3232,4.3358,4.3357,4.3357,4.3357,4.3357,0,4.267,4.2703,4.2762,4.2831,4.2882,4.2877,4.2932,4.2976,4.3042,4.3091,4.3147,4.3229,4.3297,4.334,4.3409,4.345,4.3453,4.3468,4.3466,4.3474,4.3378,4.3358,4.3464,4.3464,4.3464,4.3464,4.3464,4.3464,4.2735,4.2817,4.2834,4.2936,4.297,4.3043,4.3075,4.3119,4.3159,4.325,4.3306,4.3334,4.3382,4.3455,4.3518,4.3529,4.3555,4.3571,4.3582,4.3492,4.3481,4.347,4.3452,4.3576,4.3576,4.3674,4.3675,4.3675]}]]